Regional Weather Roundup
Issued by NWS

Home | Current Version | Previous Version | Graphics & Text | Print | Product List | Glossary On
Versions: 1 2 3 4 5 6 7 8 9 10 11 12 13 14 15 16 17 18 19 20 21 22 23 24 25 26 27 28 29 30 31 32 33 34 35 36 37 38 39 40 41 42 43 44 45 46 47 48 49 50
000
ASUS43 KLMK 261802
RWRKY
KENTUCKY REGIONAL WEATHER ROUNDUP
NATIONAL WEATHER SERVICE LOUISVILLE KY
100 PM EST THU FEB 26 2015

NOTE "FAIR" INDICATES FEW OR NO CLOUDS BELOW 12,000 FEET
WITH NO SIGNIFICANT WEATHER AND/OR OBSTRUCTIONS TO VISIBILITY.

KYZ001>023-026-027-061>063-070>075-261900-
WESTERN AND SOUTH CENTRAL KENTUCKY

CITY           SKY/WX    TMP DP  RH WIND       PRES   REMARKS
PADUCAH        CLOUDY    32  23  69 N14       30.12R WCI  22
HENDERSON      CLOUDY    30  19  64 N8        30.12R WCI  23
OWENSBORO      CLOUDY    33  19  56 N8        30.10R WCI  26
HOPKINSVILLE   CLOUDY    35  24  64 NW7       30.07R WCI  29
BOWLING GREEN  SUNNY     40  19  43 VRB6      30.04S
GLASGOW        NOT AVBL
$$

KYZ024-025-028>034-038-045-046-053-261900-
NORTH CENTRAL KENTUCKY

CITY           SKY/WX    TMP DP  RH WIND       PRES   REMARKS
LOUISVILLE/SDF MOSUNNY   32  17  54 NW10      30.07R WCI  24
LOUISVILLE/LOU SUNNY     30  15  53 NW9       30.07R WCI  22
FORT KNOX      SUNNY     33  16  49 NW12      30.03S WCI  25
$$

KYZ035>037-039>044-047>052-055>060-089>105-261900-
NORTHEAST KENTUCKY

CITY           SKY/WX    TMP DP  RH WIND       PRES   REMARKS
LEXINGTON      PTSUNNY   30  16  56 CALM      30.02S
COVINGTON      MOSUNNY   23  13  65 N9        30.06R WCI  13
FRANKFORT      MOSUNNY   32  15  49 CALM      30.02S
$$

KYZ054-064>069-076>088-106>120-261900-
SOUTHEAST KENTUCKY

CITY           SKY/WX    TMP DP  RH WIND       PRES   REMARKS
JACKSON        CLOUDY    37  21  52 CALM      29.95F
LONDON         MOSUNNY   37  21  52 N5        29.97F WCI  33
SOMERSET       NOT AVBL
MIDDLESBORO    NOT AVBL
MONTICELLO     MOCLDY    39  24  55 CALM      30.02F
$$



USA.gov is the U.S. government's official web portal to all federal, state and local government web resources and services.